NOAA 16 DEB, 41372

Orbit data source: Space-Track

NOAA 16 DEB, 41372 is space debris in SSO originally from a launch on Thu, 21 Sep 2000 UTC launched from the Air Force Western Test Range (AFWTR). Debris objects in space refer to the collection of defunct objects orbiting the Earth. Examples of debris include non-operational satellites, rocket bodies, and fragments generated from explosions, collisions, or faulty payload assembly.

Loading next visibility...
Identifier
41372, 2000-055JR
Orbit
SSO
Country
Flag of USUS
Related business
Manufacturer
Unknown
Mission
Spacecraft
Bus & Motor
Unknown
Mass
Unknown
Launch date (UTC)
2000-09-21 (25 years ago)
Launch vehicle
Unknown
Launch site
Air Force Western Test Range (AFWTR)
Object type
Payload
Rocket body
Debris
Shape & HBR
Unknown
Radar Cross Section
Small (<0.1 m²)

Expand to show TLE details & history
Last TLE update: 2 days ago

TLE from 2 days ago
0 NOAA 16 DEB
1 41372U 00055JR  25257.48448314  .00009001  00000-0  18194-2 0  9999
2 41372  98.9756 168.3224 0054267  87.4456 273.2953 14.60680581505715
Epoch: 2025-09-14T11:37Z
TLE epoch observation values (Epoch: 2025-09-14T11:37:39.343Z)
Latitude
0.00001°
Longitude
0.20564°
Altitude
691.941 km
Speed
7.511 km/s
True Right ascension
11h 13m 17s
True Declination
0° 00' 00"
Sunlit
Object was in daylight at epoch
Visualization orbit readout
Latitude
Unknown
Longitude
Unknown
Altitude
Unknown
Speed
Unknown
Apparent Right ascension
Unknown
Apparent Declination
Unknown
Sunlit
N/A
Visualization observer readout
Local Sidereal Time
16:28:46
Azimuth
Unknown
Elevation
Unknown
Doppler factor
Unknown
Orbital elements
Apogee altitude
726.441 km
Perigee altitude
649.748 km
Semi-major axis
7,066.232 km
Eccentricity
0.00543
Inclination
98.9756°
RAAN
168.3224°
Arg. of periapsis
87.4456°
True anomaly
272.67424°
Mean anomaly
273.2953°
Eccentric anomaly
272.98479°
Mean motion
3.65394 °/min
Orbital period
98.52 mins
BSTAR
0.0018194
Loading maneuver chart data...
Computing Atmospheric mass density...
Loading historical data...
Loading historical data...
Loading historical data...
Loading historical data...
Loading historical data...
Loading historical data...
Loading historical data...

Documentation

Showing up to 5 results
|